Siren, WI

5:02 PM CDT on May 26, 2017 (GMT -0500)
Burnett County

Weather History for KRZN - May, 2013

Change the Weather History Date:

Wednesday, May 15, 2013

  Actual Average Record
Temperature  
Mean Temperature 61 °F -  
Max Temperature 78 °F - - ()
Min Temperature 44 °F - - ()
Degree Days  
Heating Degree Days 4    
Growing Degree Days 11 (Base 50)    
Moisture  
Dew Point 38 °F    
Average Humidity 41    
Maximum Humidity 87    
Minimum Humidity 16    
Precipitation  
Precipitation 0.00 in - - ()
Sea Level Pressure  
Sea Level Pressure 29.80 in    
Wind  
Wind Speed 10 mph (NW)    
Max Wind Speed 21 mph    
Max Gust Speed 33 mph    
Visibility 10 miles    
Events      
Averages and records for this station are not official NWS values.
T = Trace of Precipitation, MM = Missing Value Source: NWS Daily Summary

Daily Weather History Graph

Daily Weather History Graph

Search for Another Location

Airport or City:

Trip Planner

Search our weather history database for the weather conditions in past years. The results will help you decide how hot, cold, wet, or windy it might be!

Date:

Astronomy

May. 15, 2013 Rise Set
Actual Time 5:37 AM CDT 8:34 PM CDT
Civil Twilight 5:02 AM CDT 9:09 PM CDT
Nautical Twilight 4:17 AM CDT 9:54 PM CDT
Astronomical Twilight 3:24 AM CDT 10:48 PM CDT
Moon 10:16 AM CDT (5/15) 12:19 AM CDT (5/15)
Length of Visible Light 16h 07m
Length of Day
14h 57m
Waxing Crescent, 27% of the Moon is Illuminated
May 15
Waxing Crescent
May 17
First Quarter
May 24
Full
May 31
Last Quarter
Jun 8
New

Hourly Weather History & Observations

Time (CDT) Temp. Windchill Dew Point Humidity Pressure Visibility Wind Dir Wind Speed Gust Speed Precip Events Conditions
12:15 AM 64.4 °F - 42.8 °F 45% 29.65 in 10.0 mi NW 10.4 mph - N/A   Clear
12:35 AM 62.6 °F - 42.8 °F 48% 29.65 in 10.0 mi NW 9.2 mph - N/A   Clear
12:55 AM 62.6 °F - 42.8 °F 48% 29.66 in 10.0 mi NW 9.2 mph - N/A   Clear
1:15 AM 62.6 °F - 44.6 °F 52% 29.67 in 10.0 mi NNW 19.6 mph 25.3 mph N/A   Clear
1:35 AM 60.8 °F - 44.6 °F 55% 29.69 in 10.0 mi North 16.1 mph 25.3 mph N/A   Clear
1:55 AM 60.8 °F - 44.6 °F 55% 29.71 in 10.0 mi North 12.7 mph 20.7 mph N/A   Clear
2:15 AM 59.0 °F - 44.6 °F 59% 29.72 in 10.0 mi North 16.1 mph 23.0 mph N/A   Clear
2:35 AM 59.0 °F - 44.6 °F 59% 29.73 in 10.0 mi NNW 12.7 mph 20.7 mph N/A   Clear
2:55 AM 57.2 °F - 42.8 °F 59% 29.75 in 10.0 mi North 13.8 mph - N/A   Clear
3:15 AM 55.4 °F - 42.8 °F 63% 29.76 in 10.0 mi North 9.2 mph - N/A   Clear
3:35 AM 55.4 °F - 42.8 °F 63% 29.76 in 10.0 mi NNW 5.8 mph - N/A   Clear
3:55 AM 53.6 °F - 42.8 °F 67% 29.78 in 10.0 mi NNW 6.9 mph - N/A   Clear
4:15 AM 53.6 °F - 42.8 °F 67% 29.78 in 10.0 mi NNW 5.8 mph - N/A   Clear
4:35 AM 51.8 °F - 42.8 °F 71% 29.78 in 10.0 mi NNW 5.8 mph - N/A   Clear
4:55 AM 51.8 °F - 41.0 °F 67% 29.79 in 10.0 mi NW 4.6 mph - N/A   Clear
5:15 AM 51.8 °F - 41.0 °F 67% 29.79 in 10.0 mi WNW 3.5 mph - N/A   Clear
5:35 AM 46.4 °F 45.2 °F 41.0 °F 81% 29.80 in 10.0 mi NW 3.5 mph - N/A   Clear
5:55 AM 44.6 °F 43.1 °F 41.0 °F 87% 29.80 in 10.0 mi WNW 3.5 mph - N/A   Clear
6:15 AM 46.4 °F 45.2 °F 41.0 °F 81% 29.82 in 10.0 mi WNW 3.5 mph - N/A   Clear
6:35 AM 50.0 °F - 42.8 °F 76% 29.83 in 10.0 mi NW 3.5 mph - N/A   Clear
6:55 AM 53.6 °F - 42.8 °F 67% 29.85 in 10.0 mi WNW 8.1 mph - N/A   Clear
7:15 AM 55.4 °F - 42.8 °F 63% 29.86 in 10.0 mi NW 8.1 mph - N/A   Clear
7:35 AM 55.4 °F - 42.8 °F 63% - 10.0 mi WNW 9.2 mph - N/A   Clear
7:55 AM 59.0 °F - 42.8 °F 55% 29.89 in 10.0 mi WNW 9.2 mph - N/A   Clear
8:15 AM 59.0 °F - 42.8 °F 55% 29.89 in 10.0 mi NW 9.2 mph - N/A   Clear
8:35 AM 60.8 °F - 42.8 °F 52% 29.89 in 10.0 mi NW 6.9 mph - N/A   Clear
8:55 AM 62.6 °F - 42.8 °F 48% 29.89 in 10.0 mi NW 6.9 mph - N/A   Clear
9:15 AM 62.6 °F - 42.8 °F 48% 29.89 in 10.0 mi WNW 6.9 mph - N/A   Clear
9:35 AM 64.4 °F - 41.0 °F 42% 29.89 in 10.0 mi NNW 8.1 mph - N/A   Clear
9:55 AM 64.4 °F - 39.2 °F 40% 29.88 in 10.0 mi West 8.1 mph - N/A   Clear
10:15 AM 68.0 °F - 37.4 °F 33% 29.88 in 10.0 mi WNW 6.9 mph - N/A   Clear
10:35 AM 68.0 °F - 37.4 °F 33% 29.88 in 10.0 mi WNW 5.8 mph - N/A   Clear
10:55 AM 69.8 °F - 37.4 °F 31% 29.87 in 10.0 mi NNW 9.2 mph 17.3 mph N/A   Clear
11:15 AM 69.8 °F - 37.4 °F 31% 29.86 in 10.0 mi NNW 9.2 mph - N/A   Clear
11:35 AM 71.6 °F - 37.4 °F 29% 29.86 in 10.0 mi North 12.7 mph 18.4 mph N/A   Clear
11:55 AM 71.6 °F - 37.4 °F 29% 29.86 in 10.0 mi NW 8.1 mph 11.5 mph N/A   Clear
12:15 PM 71.6 °F - 37.4 °F 29% 29.85 in 10.0 mi NW 10.4 mph 16.1 mph N/A   Scattered Clouds
12:35 PM 73.4 °F - 37.4 °F 27% 29.85 in 10.0 mi NW 10.4 mph 18.4 mph N/A   Clear
12:55 PM 75.2 °F - 35.6 °F 24% 29.84 in 10.0 mi NNW 9.2 mph 29.9 mph N/A   Scattered Clouds
1:15 PM 75.2 °F - 33.8 °F 22% 29.83 in 10.0 mi NNW 16.1 mph 27.6 mph N/A   Scattered Clouds
1:35 PM 77.0 °F - 33.8 °F 21% 29.83 in 10.0 mi NW 16.1 mph 23.0 mph N/A   Scattered Clouds
1:55 PM 77.0 °F - 33.8 °F 21% 29.82 in 10.0 mi WNW 20.7 mph 25.3 mph N/A   Scattered Clouds
2:15 PM 78.8 °F - 32.0 °F 18% 29.82 in 10.0 mi NNW 13.8 mph 20.7 mph N/A   Scattered Clouds
2:35 PM 77.0 °F - 30.2 °F 18% 29.81 in 10.0 mi North 18.4 mph 29.9 mph N/A   Clear
2:55 PM 78.8 °F - 30.2 °F 17% 29.81 in 10.0 mi NW 13.8 mph 33.4 mph N/A   Scattered Clouds
3:15 PM 78.8 °F - 32.0 °F 18% 29.81 in 10.0 mi NNW 16.1 mph 27.6 mph N/A   Scattered Clouds
3:35 PM 78.8 °F - 28.4 °F 16% 29.80 in 10.0 mi NNW 19.6 mph 28.8 mph N/A   Clear
3:55 PM 78.8 °F - 30.2 °F 17% 29.79 in 10.0 mi NW 17.3 mph - N/A   Scattered Clouds
4:15 PM 78.8 °F - 30.2 °F 17% 29.79 in 10.0 mi NNW 15.0 mph 19.6 mph N/A   Scattered Clouds
4:35 PM 78.8 °F - 32.0 °F 18% 29.79 in 10.0 mi NNW 13.8 mph 27.6 mph N/A   Clear
4:55 PM 77.0 °F - 32.0 °F 19% 29.79 in 10.0 mi NNW 12.7 mph - N/A   Scattered Clouds
5:15 PM 78.8 °F - 32.0 °F 18% 29.79 in 10.0 mi NW 16.1 mph - N/A   Scattered Clouds
5:35 PM 77.0 °F - 32.0 °F 19% 29.79 in 10.0 mi NNW 9.2 mph - N/A   Scattered Clouds
5:55 PM 77.0 °F - 32.0 °F 19% 29.79 in 10.0 mi NW 6.9 mph - N/A   Scattered Clouds
6:15 PM 78.8 °F - 30.2 °F 17% 29.78 in 10.0 mi NNW 17.3 mph - N/A   Scattered Clouds
6:35 PM 78.8 °F - 30.2 °F 17% 29.78 in 10.0 mi NW 16.1 mph - N/A   Scattered Clouds
6:55 PM 77.0 °F - 30.2 °F 18% 29.79 in 10.0 mi NW 8.1 mph 24.2 mph N/A   Scattered Clouds
7:15 PM 77.0 °F - 30.2 °F 18% 29.79 in 10.0 mi NW 13.8 mph 17.3 mph N/A   Clear
7:35 PM 75.2 °F - 32.0 °F 21% 29.79 in 10.0 mi NNW 9.2 mph - N/A   Scattered Clouds
7:55 PM 73.4 °F - 32.0 °F 22% 29.79 in 10.0 mi WNW 4.6 mph - N/A   Clear
8:15 PM 71.6 °F - 32.0 °F 23% 29.79 in 10.0 mi WNW 3.5 mph - N/A   Clear
8:35 PM 68.0 °F - 32.0 °F 26% 29.80 in 10.0 mi Calm Calm - N/A   Clear
8:55 PM 62.6 °F - 33.8 °F 34% 29.80 in 10.0 mi Calm Calm - N/A   Clear
9:15 PM 60.8 °F - 35.6 °F 39% 29.80 in 10.0 mi Calm Calm - N/A   Clear
9:35 PM 59.0 °F - 37.4 °F 45% 29.81 in 10.0 mi Calm Calm - N/A   Clear
9:55 PM 59.0 °F - 37.4 °F 45% 29.81 in 10.0 mi Calm Calm - N/A   Clear
10:15 PM 59.0 °F - 37.4 °F 45% 29.81 in 10.0 mi Calm Calm - N/A   Clear
10:35 PM 57.2 °F - 35.6 °F 44% 29.83 in 10.0 mi NE 3.5 mph - N/A   Scattered Clouds
10:55 PM 59.0 °F - 37.4 °F 45% 29.83 in 10.0 mi Calm Calm - N/A   Scattered Clouds
11:15 PM 53.6 °F - 37.4 °F 54% 29.83 in 10.0 mi Calm Calm - N/A   Scattered Clouds
11:35 PM 53.6 °F - 37.4 °F 54% 29.83 in 10.0 mi Calm Calm - N/A   Clear
11:55 PM 51.8 °F - 39.2 °F 62% 29.83 in 10.0 mi Calm Calm - N/A   Clear